Regional Weather Roundup
Issued by NWS

Home | Current Version | Previous Version | Graphics & Text | Print | Product List | Glossary On
Versions: 1 2 3 4 5 6 7 8 9 10 11 12 13 14 15 16 17 18 19 20 21 22 23 24 25 26 27 28 29 30 31 32 33 34 35 36 37 38 39 40 41 42 43 44 45 46 47 48 49 50
000
ASUS43 KDTX 242201
RWRMI
MICHIGAN HOURLY REGIONAL WEATHER ROUNDUP
NATIONAL WEATHER SERVICE DETROIT/PONTIAC MI
500 PM EST FRI FEB 24 2017

NOTE: "FAIR" INDICATES FEW OR NO CLOUDS BELOW 12,000 FEET WITH NO
SIGNIFICANT WEATHER AND/OR OBSTRUCTION TO VISIBILITY.

MIZ047>049-052>055-059>063-066>070-074>076-081>083-242300-
SOUTHEAST LOWER MICHIGAN

CITY           SKY/WX    TMP DP  RH WIND       PRES   REMARKS
ADRIAN         CLOUDY    63  56  78 W5        29.48R
ALMA           MIX PCPN  38  38  97 E12       29.45F WCI  31
ANN ARBOR      PTSUNNY   57  55  93 CALM      29.48S
BAD AXE        LGT SNOW  39  39 100 E6        29.47F
CARO           RAIN      44  44  99 CALM      29.46F
DETROIT CITY   CLOUDY    62  57  83 S8        29.49R
DETROIT        CLOUDY    66  56  70 S13       29.49S
FLINT          CLOUDY    52  51  97 CALM      29.46S FOG
GROSSE ILE     CLOUDY    53  46  78 S12       29.48F
HILLSDALE      CLOUDY    63  55  77 S6        29.46F
HOWELL         CLOUDY    63  50  63 S8        29.47R

CITY           SKY/WX    TMP DP  RH WIND       PRES   REMARKS
JACKSON        CLOUDY    64  54  69 S7        29.46F
LAMBERTVILLE   CLOUDY    70  54  56 S14G24    29.47F
LANSING        CLOUDY    51  48  89 E6        29.45F FOG
LAPEER         FAIR      55  53  93 SE10      29.46F FOG
MASON          LGT RAIN  53  53  99 SE3       29.44F
MONROE         LGT RAIN  68  55  63 S17G31    29.45F
MT. CLEMENS    CLOUDY    56  56  99 S6        29.46F
PONTIAC        CLOUDY    61  49  64 SW9       29.48S
PORT HOPE        N/A     37  37 100 E9        29.47F WCI  30
PORT HURON     CLOUDY    54  52  94 S5        29.49F
TRI CITIES     LGT RAIN  38  38 100 NE9       29.48F FOG     WCI  31
MIDLAND        LGT RAIN  38  36  95 E9        29.46F WCI  31
TROY           CLOUDY    58  51  75 W6        29.51S
SAGINAW HB     LGT RAIN  41  37  87 NW8       29.48F VSB 3/4
$$
MIZ043>046-050>051-056>058-064>065-071>073-077>080-242300-
SOUTHWEST LOWER MICHIGAN

CITY           SKY/WX    TMP DP  RH WIND       PRES   REMARKS
BATTLE CREEK   CLOUDY    60  57  89 S9        29.43F
BENTON HARBOR  LGT RAIN  43  42  97 W18       29.44R VSB 1/4
BIG RAPIDS     LGT SNOW  37  35  96 E7        29.44F WCI  31
COLDWATER      CLOUDY    64  55  74 SE10      29.44F
FREMONT        CLOUDY    38  38 100 CALM      29.42F FOG
HOLLAND        LGT RAIN  45  43  93 E7        29.40F FOG
GRAND RAPIDS   LGT RAIN  42  40  92 E7        29.42F
IONIA          CLOUDY    41  40  98 E7        29.43F FOG
KALAMAZOO      TSTM      60  55  83 SW8       29.43F
LUDINGTON      DRIZZLE   34  34 100 N6        29.46S WCI  29
MARSHALL       CLOUDY    62  57  86 S6        29.43F
MOUNT PLEASANT LGT RAIN  38  37  98 NE8       29.46F WCI  32
MUSKEGON       LGT RAIN  41  40  96 E7        29.42F FOG
SOUTH HAVEN    FOG       47  46  95 W12G21    29.41S VSB 1/4
$$
MIZ016>042-242300-
NORTHERN LOWER MICHIGAN

CITY           SKY/WX    TMP DP  RH WIND       PRES   REMARKS
ALPENA         TSTM      34  33  96 E18G24    29.56F FOG     WCI  23
BEAVER ISLAND  CLOUDY    30  28  94 NE14G25   29.60F FOG     WCI  19
BELLAIRE       CLOUDY    35  32  89 NE7       29.52S WCI  29
CADILLAC       MIX PCPN  33  32  96 E10       29.45F WCI  25
CHARLEVOIX     CLOUDY    33  31  92 NE14      29.57S WCI  23
FRANKFORT      DRIZZLE   34  34  98 N3        29.50F
GAYLORD        CLOUDY    34  31  88 NE15G21   29.50F FOG     WCI  24
GRAYLING       LGT RAIN  34  32  93 NE12G17   29.50R WCI  25
HARBOR SPRINGS CLOUDY    31  30  93 NE21G30   29.55F FOG     WCI  19
HOUGHTON LAKE  CLOUDY    34  32  92 NE14      29.49F FOG     WCI  25
MANISTEE       MIX PCPN  34  34 100 NE8       29.47F FOG     WCI  27
OSCODA         LGT SNOW  36  35  96 NE13G20   29.54S VSB 1   WCI  28
PELLSTON       LGT SNOW  31  27  85 E16       29.60S VSB 1   WCI  20
ROGERS CITY    MIX PCPN  32  31  96 NE7       29.60F WCI  26
TRAVERSE CITY  CLOUDY    36  34  92 E3        29.51R
$$
MIZ007>008-015-242300-
EASTERN UPPER MICHIGAN

CITY           SKY/WX    TMP DP  RH WIND       PRES   REMARKS
KINROSS        CLOUDY    29  23  78 NE14      29.63F WCI  18
MACKINAC ISLAN CLOUDY    29  26  92 NE20G29   29.60F WCI  16
NEWBERRY       CLOUDY    25  24  96 NE10      29.65S FOG     WCI  15
S. S. MARIE    CLOUDY    30  22  72 NE9G17    29.66F WCI  22
MUNISING         N/A     26  23  88 N17       29.70F WCI  13
$$
MIZ004>006-011>014-085-242300-
CENTRAL UPPER MICHIGAN

CITY           SKY/WX    TMP DP  RH WIND       PRES   REMARKS
MANISTIQUE     LGT SNOW  27  26  98 N15       29.63F WCI  15
ESCANABA       MIX PCPN  25  23  92 N12G21    29.64F FOG     WCI  14
MENOMINEE      MIX PCPN  26  23  88 N17       29.62  FOG     WCI  13
SAWYER-GWINN   LGT SNOW  21  19  93 N21G30    29.69F WCI   6
$$
MIZ001>003-009>011-084-242300-
WESTERN UPPER MICHIGAN

CITY           SKY/WX    TMP DP  RH WIND       PRES   REMARKS
IRON MOUNTAIN  MIX PCPN  23  17  78 N16       29.65S WCI  10
HOUGHTON       LGT SNOW  19  12  74 NE14      29.78F WCI   6
COPPER HARBOR    N/A     23  17  78 E17G28    29.82F WCI   9
IRONWOOD       LGT SNOW  19  15  84 N12G21    29.80S VSB 3/4 WCI   7
$$

ABBREVIATIONS USED IN REMARKS
   TC - TEMPERATURE IN CELSIUS
  WCI - WIND CHILL INDEX
   HX - HEAT INDEX
  VSB - VISIBILITY





USA.gov is the U.S. government's official web portal to all federal, state and local government web resources and services.